Date String (YYYY-MM-DD hh:mm:ss) UTC,Instrument flags,absolute air pressure of the measurement (hPa),sample flow rate (lpm),inlet stack bypass flow (lpm),air temperature of the measurement (°C),ambient temperature measured by the external sensor (°C),aerosol sample conditioner tube jacket temperature (°C),OPC LED temperature (°C),internal box temperature (°C),relative humidity of the measurement (%),span deviation,mass concentration of particles derived from Lorenz-Mie calculation of OPC scattering (μg/m³),mass concentration of particles derived from Lorenz-Mie calculation of OPC scattering (μg/m³),mass concentration of particles derived from Lorenz-Mie calculation of OPC scattering (μg/m³)
DateTimeUTC,F1_M11,P_M11,Q1_M11,Q2_M11,T1_M11,T2_M11,T3_M11,T4_M11,T5_M11,U1_M11,ZSPAN_M11,X2_M11,X0_M11,X1_M11
2024-05-06 14:00:00,SystemResetWarning,0810.9,5.00,000.00,022.4,021.5,000.0,030.7,024.0,011.8,0000.0,0000.83,0006.19,0000.28
2024-05-06 14:01:00,SystemResetWarning,0811.0,5.01,000.00,022.4,021.5,000.0,030.6,023.9,011.8,0000.0,0000.80,0005.94,0000.28
2024-05-06 14:02:00,SystemResetWarning,0810.8,5.01,000.00,022.4,021.5,000.0,030.6,023.9,011.9,0000.0,0000.82,0006.28,0000.28
2024-05-06 14:03:00,SystemResetWarning,0810.7,4.99,000.00,022.4,021.5,000.0,030.6,023.9,011.9,0000.0,0000.85,0005.41,0000.27
2024-05-06 14:04:00,SystemResetWarning,0810.4,4.99,000.00,022.3,021.5,000.0,030.6,023.9,011.6,0000.0,0000.87,0005.59,0000.27
2024-05-06 14:05:00,SystemResetWarning,0810.2,5.01,000.00,022.3,021.5,000.0,030.6,024.0,011.2,0000.0,0000.99,0006.44,0000.27
2024-05-06 14:06:00,SystemResetWarning,0810.0,5.01,000.00,022.3,021.5,000.0,030.6,024.0,011.1,0000.0,0001.06,0006.29,0000.27
2024-05-06 14:07:00,SystemResetWarning,0809.9,5.00,000.00,022.3,021.5,000.0,030.6,024.0,011.2,0000.0,0001.10,0006.87,0000.28
2024-05-06 14:08:00,SystemResetWarning,0809.9,5.00,000.00,022.3,021.5,000.0,030.6,024.0,011.1,0000.0,0001.10,0007.15,0000.29
2024-05-06 14:09:00,SystemResetWarning,0810.0,4.99,000.00,022.3,021.4,000.0,030.6,024.0,010.9,0000.0,0001.11,0007.75,0000.29
2024-05-06 14:10:00,SystemResetWarning,0810.3,5.00,000.00,022.3,021.4,000.0,030.6,024.0,010.7,0000.0,0001.07,0008.71,0000.28
2024-05-06 14:11:00,SystemResetWarning,0810.5,5.00,000.00,022.3,021.4,000.0,030.6,023.9,010.7,0000.0,0001.06,0008.58,0000.28
2024-05-06 14:12:00,SystemResetWarning,0810.6,5.00,000.00,022.3,021.4,000.0,030.6,023.9,011.1,0000.0,0001.06,0008.84,0000.28
2024-05-06 14:13:00,SystemResetWarning,0810.3,5.00,000.00,022.3,021.4,000.0,030.6,023.9,011.2,0000.0,0001.07,0008.94,0000.28
2024-05-06 14:14:00,SystemResetWarning,0810.1,5.01,000.00,022.3,021.4,000.0,030.6,023.9,010.9,0000.0,0001.14,0008.88,0000.29
2024-05-06 14:15:00,SystemResetWarning,0810.1,5.00,000.00,022.2,021.4,000.0,030.6,023.9,010.9,0000.0,0001.32,0010.50,0000.31
2024-05-06 14:16:00,SystemResetWarning,0810.2,4.99,000.00,022.2,021.4,000.0,030.5,023.9,010.7,0000.0,0001.41,0012.41,0000.33
2024-05-06 14:17:00,SystemResetWarning,0810.4,5.00,000.00,022.2,021.4,000.0,030.5,023.9,010.8,0000.0,0001.45,0012.52,0000.34
2024-05-06 14:18:00,SystemResetWarning,0810.4,5.00,000.00,022.2,021.3,000.0,030.5,023.9,011.0,0000.0,0001.54,0013.58,0000.34
2024-05-06 14:19:00,SystemResetWarning,0810.5,5.01,000.00,022.2,021.3,000.0,030.5,023.9,011.1,0000.0,0001.61,0014.70,0000.36
2024-05-06 14:20:00,SystemResetWarning,0810.6,5.01,000.00,022.2,021.3,000.0,030.5,023.9,010.9,0000.0,0001.62,0014.69,0000.36
2024-05-06 14:21:00,SystemResetWarning,0810.6,5.00,000.00,022.2,021.3,000.0,030.5,023.9,010.9,0000.0,0001.67,0013.71,0000.37
2024-05-06 14:22:00,SystemResetWarning,0810.6,4.99,000.00,022.2,021.4,000.0,030.5,023.8,011.0,0000.0,0001.74,0014.17,0000.38
2024-05-06 14:23:00,SystemResetWarning,0810.4,4.99,000.00,022.2,021.4,000.0,030.5,023.9,010.9,0000.0,0001.77,0014.20,0000.39
2024-05-06 14:24:00,SystemResetWarning,0810.3,5.00,000.00,022.2,021.3,000.0,030.5,023.9,011.0,0000.0,0001.74,0013.80,0000.38
2024-05-06 14:25:00,SystemResetWarning,0810.1,5.00,000.00,022.2,021.3,000.0,030.5,023.9,010.8,0000.0,0001.66,0013.64,0000.37
2024-05-06 14:26:00,SystemResetWarning,0810.2,5.01,000.00,022.2,021.3,000.0,030.5,023.9,010.8,0000.0,0001.72,0013.56,0000.38
2024-05-06 14:27:00,SystemResetWarning,0810.6,5.00,000.00,022.2,021.3,000.0,030.5,023.8,010.8,0000.0,0001.57,0012.32,0000.37
2024-05-06 14:28:00,SystemResetWarning,0810.6,4.99,000.00,022.2,021.3,000.0,030.5,023.8,010.9,0000.0,0001.49,0012.56,0000.37
2024-05-06 14:29:00,SystemResetWarning,0810.5,4.99,000.00,022.2,021.3,000.0,030.4,023.8,010.9,0000.0,0001.38,0011.37,0000.36
2024-05-06 14:30:00,SystemResetWarning,0810.2,5.01,000.00,022.2,021.3,000.0,030.4,023.8,010.8,0000.0,0001.31,0010.11,0000.34
2024-05-06 14:31:00,SystemResetWarning,0810.1,5.01,000.00,022.2,021.3,000.0,030.4,023.8,010.6,0000.0,0001.35,0009.64,0000.35
2024-05-06 14:32:00,SystemResetWarning,0810.1,5.01,000.00,022.1,021.3,000.0,030.4,023.8,010.8,0000.0,0001.37,0009.67,0000.35
2024-05-06 14:33:00,SystemResetWarning,0810.2,4.99,000.00,022.1,021.3,000.0,030.4,023.8,010.7,0000.0,0001.37,0009.35,0000.35
2024-05-06 14:34:00,SystemResetWarning,0810.3,5.00,000.00,022.1,021.3,000.0,030.4,023.8,010.8,0000.0,0001.33,0009.01,0000.35
2024-05-06 14:35:00,SystemResetWarning,0810.4,5.00,000.00,022.1,021.3,000.0,030.4,023.8,010.8,0000.0,0001.32,0009.03,0000.36
2024-05-06 14:36:00,SystemResetWarning,0810.5,5.00,000.00,022.1,021.3,000.0,030.4,023.8,010.9,0000.0,0001.31,0008.93,0000.37
2024-05-06 14:37:00,SystemResetWarning,0810.4,5.01,000.00,022.1,021.3,000.0,030.4,023.8,010.5,0000.0,0001.05,0007.06,0000.36
2024-05-06 14:38:00,SystemResetWarning,0810.6,5.01,000.00,022.1,021.3,000.0,030.4,023.8,010.2,0000.0,0000.99,0005.83,0000.35
2024-05-06 14:39:00,SystemResetWarning,0810.8,5.00,000.00,022.1,021.3,000.0,030.4,023.8,010.5,0000.0,0000.94,0005.35,0000.34
2024-05-06 14:40:00,SystemResetWarning,0810.8,4.99,000.00,022.1,021.3,000.0,030.4,023.8,010.7,0000.0,0000.93,0005.20,0000.34
2024-05-06 14:41:00,SystemResetWarning,0810.8,5.00,000.00,022.1,021.3,000.0,030.4,023.8,010.4,0000.0,0000.92,0006.41,0000.34
2024-05-06 14:42:00,SystemResetWarning,0810.8,5.01,000.00,022.1,021.3,000.0,030.4,023.8,010.4,0000.0,0000.88,0007.31,0000.34
2024-05-06 14:43:00,SystemResetWarning,0810.9,5.00,000.00,022.1,021.3,000.0,030.4,023.7,010.6,0000.0,0000.88,0007.47,0000.32
2024-05-06 14:44:00,SystemResetWarning,0811.1,5.00,000.00,022.1,021.3,000.0,030.4,023.8,010.6,0000.0,0000.84,0007.88,0000.31
2024-05-06 14:45:00,SystemResetWarning,0810.8,5.00,000.00,022.1,021.2,000.0,030.4,023.8,010.8,0000.0,0000.86,0007.96,0000.30
2024-05-06 14:46:00,SystemResetWarning,0810.8,5.00,000.00,022.1,021.3,000.0,030.4,023.8,010.9,0000.0,0000.84,0008.38,0000.29
2024-05-06 14:47:00,SystemResetWarning,0810.7,4.99,000.00,022.1,021.3,000.0,030.4,023.8,011.1,0000.0,0000.82,0008.78,0000.28
2024-05-06 14:48:00,SystemResetWarning,0810.3,4.98,000.00,022.1,021.3,000.0,030.4,023.8,011.2,0000.0,0000.83,0010.08,0000.27
2024-05-06 14:49:00,SystemResetWarning,0810.4,5.00,000.00,022.1,021.2,000.0,030.4,023.8,011.0,0000.0,0000.90,0010.09,0000.27
2024-05-06 14:50:00,SystemResetWarning,0810.5,5.01,000.00,022.1,021.2,000.0,030.4,023.8,011.3,0000.0,0000.93,0009.56,0000.27
2024-05-06 14:51:00,SystemResetWarning,0810.6,5.01,000.00,022.0,021.2,000.0,030.3,023.8,011.5,0000.0,0001.01,0009.75,0000.28
2024-05-06 14:52:00,SystemResetWarning,0810.4,5.00,000.00,022.0,021.2,000.0,030.3,023.7,011.4,0000.0,0001.12,0011.01,0000.29
2024-05-06 14:53:00,SystemResetWarning,0810.2,5.00,000.00,022.0,021.2,000.0,030.3,023.7,011.2,0000.0,0001.18,0010.83,0000.29
2024-05-06 14:54:00,SystemResetWarning,0810.2,4.98,000.00,022.0,021.2,000.0,030.3,023.7,011.0,0000.0,0001.32,0011.25,0000.29
2024-05-06 14:55:00,SystemResetWarning,0810.2,5.00,000.00,022.0,021.1,000.0,030.3,023.7,011.0,0000.0,0001.38,0011.64,0000.30
2024-05-06 14:56:00,SystemResetWarning,0810.2,5.01,000.00,022.0,021.1,000.0,030.3,023.7,011.2,0000.0,0001.46,0011.77,0000.31
2024-05-06 14:57:00,SystemResetWarning,0810.4,5.01,000.00,022.0,021.1,000.0,030.3,023.7,011.2,0000.0,0001.64,0011.59,0000.32
2024-05-06 14:58:00,SystemResetWarning,0810.4,4.98,000.00,022.0,021.1,000.0,030.3,023.6,011.3,0000.0,0001.73,0011.31,0000.32
2024-05-06 14:59:00,SystemResetWarning,0810.1,5.00,000.00,021.9,021.1,000.0,030.3,023.6,011.3,0000.0,0001.70,0010.16,0000.32
